Location: Petruro
(41.0333°N, 14.7833°E)
Time: 09:54:19
(UTC+00:00)

Cosmos 1980 Rocket - Pass Details

Date: 20 June 2021
Orbit: 830 x 848 km, 71.0° (Epoch: 26 July)

Event Time Altitude Azimuth Distance (km) Brightness Sun altitude
Rises 02:39:48 0° 344° (NNW) 3,382 5.7 -8.2°
Reaches altitude 10° 02:42:30 10° 354° (N) 2,445 5.1 -7.8°
Maximum altitude 02:47:31 33° 57° (ENE) 1,379 4.3 -7.1°
Drops below altitude 10° 02:52:30 10° 121° (ESE) 2,436 4.9 -6.4°
Sets 02:55:10 0° 131° (SE) 3,368 5.5 -6.0°
